This demonstration page uses our WeatherBlox Daily Observations layout. Learn more.

Left ArrowRight Arrow

34.02893, -84.19858

Hourly Observations for February 20, 2020

Temp ( °F °C ) Dew Point ( °F °C ) Humidity (%) Winds ( mph kmh ) Pressure ( in mb ) Visibility ( mi km ) Precip ( " mm )
12:53 am 00:53 Cloudy 46 7.8 41 5 83 83 VRB 6 9 30.32 1027 10 16 0.00 0.00
1:16 am 01:16 Cloudy with Light Rain 46 7.8 41 5 83 83 VRB 3 6 30.32 1027 10 16 0.00 0.00
1:53 am 01:53 Cloudy 45 7.2 42 5.6 90 90 E 6 9 30.32 1027 9 14 0.00 0.00
2:23 am 02:23 Cloudy with Light Rain 45 7.2 43 6.1 93 93 Calm 30.32 1027 3 5 0.00 0.00
2:53 am 02:53 Cloudy with Mist and Fog 44 6.7 43 6.1 96 96 E 7 11 30.29 1026 3 5 0.00 0.00
3:36 am 03:36 Cloudy with Mist and Fog 44 6.7 43 6.1 96 96 VRB 6 9 30.29 1026 3 4 0.01 0.25
3:53 am 03:53 Cloudy with Mist and Fog 44 6.7 43 6.1 96 96 VRB 5 7 30.28 1025 2 3 0.01 0.25
4:11 am 04:11 Cloudy with Light Rain 44 6.7 43 6.1 96 96 E 9 15 30.28 1026 3 5 0.01 0.25
4:30 am 04:30 Cloudy 44 6.7 43 6.1 96 96 E 7 11 30.27 1025 9 14 0.01 0.25
4:37 am 04:37 Cloudy with Light Rain 44 6.7 43 6.1 96 96 VRB 6 9 30.28 1026 6 10 0.01 0.25
4:44 am 04:44 Cloudy with Light Rain 44 6.7 42 5.6 93 93 E 8 13 30.28 1026 5 8 0.01 0.25
4:53 am 04:53 Cloudy with Light Rain 43 6.1 41 5 93 93 E 8 13 30.27 1025 9 14 0.01 0.25
5:04 am 05:04 Cloudy with Light Rain 43 6.1 41 5 93 93 VRB 6 9 30.28 1025 10 16 0.00 0.00
5:53 am 05:53 Cloudy with Light Rain 43 6.1 41 5 93 93 E 5 7 30.27 1025 6 10 0.03 0.76
6:24 am 06:24 Cloudy with Light Rain 43 6.1 40 4.4 89 89 VRB 5 7 30.30 1026 7 11 0.04 1.02
6:32 am 06:32 Cloudy with Light Rain 43 6.1 40 4.4 89 89 E 3 6 30.31 1026 7 11 0.05 1.27
6:53 am 06:53 Cloudy with Light Rain 42 5.6 40 4.4 92 92 NE 9 15 30.29 1026 6 10 0.08 2.03
7:09 am 07:09 Cloudy with Light Rain 42 5.6 40 4.4 92 92 NE 8 13 30.30 1026 7 11 0.02 0.51
7:53 am 07:53 Cloudy with Light Rain 40 4.4 38 3.3 93 93 VRB 7 11 30.29 1026 5 8 0.09 2.29
8:11 am 08:11 Cloudy with Light Rain 40 4.4 38 3.3 93 93 VRB 7 11 30.29 1026 7 11 0.02 0.51
8:53 am 08:53 Cloudy with Light Rain 40 4.4 38 3.3 93 93 ENE 9 15 30.27 1025 7 11 0.05 1.27
9:00 am 09:00 Cloudy with Light Rain 40 4.4 38 3.3 93 93 VRB 7 11 30.28 1026 7 11 0.00 0.00
9:53 am 09:53 Cloudy with Light Rain 37 2.8 33 0.6 86 86 ENE 14 22 30.31 1027 6 10 0.05 1.27
9:59 am 09:59 Cloudy with Light Rain 37 2.8 33 0.6 86 86 ENE 9 15 30.33 1027 6 10 0.01 0.25
10:53 am 10:53 Cloudy with Light Rain 38 3.3 35 1.7 89 89 NE 8 13 30.33 1027 5 8 0.11 2.79
11:31 am 11:31 Cloudy with Light Rain 39 3.9 36 2.2 89 89 NE 6 9 30.35 1028 6 10 0.07 1.78
11:53 am 11:53 Cloudy with Rain 39 3.9 36 2.2 89 89 VRB 6 9 30.35 1028 4 6 0.12 3.05
12:53 pm 12:53 Cloudy with Rain 38 3.3 37 2.8 97 97 VRB 3 6 30.29 1026 4 6 0.14 3.56
1:53 pm 13:53 Cloudy with Rain 39 3.9 37 2.8 93 93 NE 8 13 30.27 1025 3 5 0.14 3.56
2:53 pm 14:53 Cloudy with Light Rain 39 3.9 37 2.8 93 93 NNE 10 17 30.27 1025 5 8 0.12 3.05
3:53 pm 15:53 Cloudy with Light Rain 40 4.4 37 2.8 89 89 NE 8 13 30.24 1024 6 10 0.09 2.29
4:53 pm 16:53 Cloudy with Light Rain 39 3.9 36 2.2 89 89 NNE 8 13 30.26 1025 10 16 0.02 0.51
4:56 pm 16:56 Cloudy with Light Rain 39 3.9 36 2.2 89 89 NE 10 17 30.27 1025 10 16 0.00 0.00
5:53 pm 17:53 Cloudy with Light Rain 38 3.3 36 2.2 93 93 NNE 9 15 30.26 1025 10 16 0.01 0.25
6:19 pm 18:19 Cloudy with Light Rain 38 3.3 35 1.7 89 89 NNE 9 15 30.29 1026 10 16 0.00 0.00
6:46 pm 18:46 Cloudy 38 3.3 35 1.7 89 89 NNE 10 17 30.31 1026 10 16 0.00 0.00
6:53 pm 18:53 Cloudy 38 3.3 35 1.7 89 89 NNE 9 15 30.30 1026 10 16 0.01 0.25
7:10 pm 19:10 Cloudy 38 3.3 35 1.7 89 89 NNE 7 11 30.31 1026 10 16 0.00 0.00
7:17 pm 19:17 Cloudy 38 3.3 35 1.7 89 89 NNE 9 15 30.31 1026 10 16 0.00 0.00
7:53 pm 19:53 Cloudy 38 3.3 35 1.7 89 89 NNE 8 13 30.32 1027 10 16 0.00 0.00
8:53 pm 20:53 Cloudy 38 3.3 35 1.7 89 89 NE 6 9 30.35 1028 7 11 0.00 0.00
9:53 pm 21:53 Cloudy 38 3.3 36 2.2 93 93 Calm 30.36 1028 10 16 0.00 0.00
10:53 pm 22:53 Cloudy 39 3.9 35 1.7 86 86 NE 3 6 30.37 1028 10 16 0.00 0.00
11:44 pm 23:44 Cloudy 38 3.3 35 1.7 89 89 N 6 9 30.38 1029 10 16 0.00 0.00
11:53 pm 23:53 Cloudy 38 3.3 35 1.7 89 89 NNW 5 7 30.37 1029 10 16 0.00 0.00

Powered by AerisWeather